Location: Arroyo de San Miguel
(40.9167°N, 4.6667°W)
Time: 14:52:33
(UTC+00:00)

USA 229 DEB - Pass Details

Date: 19 May 2025
Orbit: 872 x 1339 km, 63.4° (Epoch: 17 June)

Event Time Altitude Azimuth Distance (km) Brightness Sun altitude
Exits shadow 23:20:44 54° 93° (E) 1,139 3.6 -27.8°
Drops below altitude 10° 23:26:26 10° 42° (NE) 2,807 6.3 -28.1°
Sets 23:29:14 0° 38° (NE) 3,833 7.1 -28.2°
